Estación de Las Viñas

Ultimos registro cada 15 minutos 32
Estación Fecha / Hora Temperatura Humedad Lluvia Velocidad Dirección Radiación Presion
32 Las Viñas 06-05-2026 07:45 12,9 80 1,6 4,9 15 0 1008,4
31 Las Viñas 06-05-2026 07:30 13 80 0,4 3,6 342 0 1008,3
30 Las Viñas 06-05-2026 07:15 13 80 0,2 1,3 357 0 1008,3
29 Las Viñas 06-05-2026 07:00 12,9 79 0,2 3,1 18 0 1008,2
28 Las Viñas 06-05-2026 06:45 12,9 79 0,2 4 330 0 1008,3
27 Las Viñas 06-05-2026 06:30 12,9 78 0 0,9 340 0 1008,2
26 Las Viñas 06-05-2026 06:15 12,8 78 0 3,1 348 0 1008,2
25 Las Viñas 06-05-2026 06:00 12,8 79 0,6 2,2 7 0 1008,2
24 Las Viñas 06-05-2026 05:45 12,8 79 1,2 4 358 0 1008,3
23 Las Viñas 06-05-2026 05:30 12,9 79 1,6 1,3 322 0 1008,4
22 Las Viñas 06-05-2026 05:15 12,9 79 0,4 2,2 345 0 1008,4
21 Las Viñas 06-05-2026 05:00 12,9 79 0 3,1 333 0 1008,5
20 Las Viñas 06-05-2026 04:45 12,9 78 0,2 1,3 2 0 1008,6
19 Las Viñas 06-05-2026 04:30 12,9 77 0 3,1 10 0 1008,7
18 Las Viñas 06-05-2026 04:15 12,8 77 0 1,3 18 0 1008,7
17 Las Viñas 06-05-2026 04:00 12,8 77 0,2 3,6 340 0 1008,8
16 Las Viñas 06-05-2026 03:45 12,8 76 0 2,7 12 0 1008,8
15 Las Viñas 06-05-2026 03:30 12,8 76 0,4 1,3 14 0 1009
14 Las Viñas 06-05-2026 03:15 12,8 76 0,6 1,3 31 0 1009,2
13 Las Viñas 06-05-2026 03:00 12,8 75 0,6 0 22 0 1009,4
12 Las Viñas 06-05-2026 02:45 12,8 75 0,4 0 345 0 1009,4
11 Las Viñas 06-05-2026 02:30 12,7 74 0,2 0 351 0 1009,4
10 Las Viñas 06-05-2026 02:15 12,8 74 0 0 72 0 1009,4
9 Las Viñas 06-05-2026 02:00 12,7 73 0,6 1,3 33 0 1009,4
8 Las Viñas 06-05-2026 01:45 12,8 73 0,8 0 18 0 1009,2
7 Las Viñas 06-05-2026 01:30 12,8 73 0,8 0,4 359 0 1009,4
6 Las Viñas 06-05-2026 01:15 12,8 73 0,4 0 34 0 1009,6
5 Las Viñas 06-05-2026 01:00 12,8 73 0,8 0 185 0 1010,2
4 Las Viñas 06-05-2026 00:45 12,8 73 1,4 0 185 0 1010,9
3 Las Viñas 06-05-2026 00:30 12,8 73 1,2 0 185 0 1010,7
2 Las Viñas 06-05-2026 00:15 12,8 74 1,4 0 355 0 1010,7
1 Las Viñas 06-05-2026 00:00 12,8 74 0,6 0 355 0 1011,2